Home > Weather > Khon Kaen > Past weeks

Flag for Thailand Past Weather in Khon Kaen, Thailand — Yesterday and Last 2 Weeks

Now
77 °F

Passing clouds.


Feels Like: 78 °F
Forecast: 81 / 92 °F
Wind: 2 mph from South

Location: Khon Kaen Airport

Current Time: May 26, 2016 at 3:58:04 AM

Latest Report: May 26, 2016 at 3:00 AM


Visibility: N/A

Pressure: 29.65 "Hg

Humidity: 94%

Dew Point: 75 °F

Location of Khon KaenLocation

Past Weather in Khon Kaen — Graph

°F

Khon Kaen Temperature Yesterday

Maximum temperature yesterday: 97 °F (at 4:00 PM)
Minimum temperature yesterday: 77 °F (at 11:00 PM)
Average temperature yesterday: 87 °F

High & Low Weather Summary for the Past Weeks

 TemperatureHumidityPressure
High104 °F (May 11, 3:00 PM)100% (May 13, 10:00 PM)29.92 "Hg (May 13, 10:00 PM)
Low75 °F (May 13, 10:00 PM)38% (May 11, 3:00 PM)29.56 "Hg (May 24, 5:00 PM)
Average86 °F72%29.74 "Hg
* Reported May 11 6:00 AM — May 26 2:00 AM, Khon Kaen, Weather by CustomWeather, © 2016

Note: Actual official high and low records may vary slightly from our data, if they occured in-between our weather recording intervals... More about our weather records

Advertising

Khon Kaen Weather History for the Previous 24 Hours

Scroll right to see more
 ConditionsComfort  
Time TempWeatherWind HumidityBarometerVisibility
2:00 AM
Thu, May 26
77 °FPassing clouds.2 mph100%29.65 "HgN/A
1:00 AM77 °FPartly cloudy.1 mph100%29.68 "HgN/A
12:00 AM75 °FLight rain. Mostly cloudy.5 mph100%29.71 "HgN/A
11:00 PM
Wed, May 25
77 °FPassing clouds.9 mph89%29.71 "HgN/A
10:00 PM86 °FPartly cloudy.3 mph66%29.68 "HgN/A
9:00 PM88 °FPassing clouds.3 mph62%29.65 "HgN/A
8:00 PM88 °FPassing clouds.3 mph59%29.62 "HgN/A
7:00 PM90 °FPassing clouds.6 mph55%29.59 "HgN/A
6:00 PM93 °FScattered clouds.7 mph49%29.56 "HgN/A
5:00 PM97 °FPassing clouds.8 mph44%29.56 "HgN/A
4:00 PM97 °FPassing clouds.9 mph44%29.56 "HgN/A
3:00 PM95 °FPassing clouds.12 mph50%29.59 "HgN/A
2:00 PM93 °FScattered clouds.8 mph53%29.62 "HgN/A
1:00 PM93 °FScattered clouds.9 mph53%29.65 "HgN/A
12:00 PM93 °FPassing clouds.9 mph53%29.68 "HgN/A
11:00 AM91 °FPassing clouds.8 mph56%29.68 "HgN/A
10:00 AM90 °FPassing clouds.7 mph63%29.68 "HgN/A
9:00 AM86 °FPassing clouds.7 mph70%29.68 "HgN/A
8:00 AM84 °FScattered clouds.6 mph74%29.68 "Hg6 mi
7:00 AM81 °FClear.5 mph89%29.65 "Hg6 mi
6:00 AM79 °FPassing clouds.5 mph94%29.65 "HgN/A
5:00 AM79 °FPassing clouds.3 mph89%29.65 "HgN/A
4:00 AM81 °FPassing clouds.3 mph84%29.62 "HgN/A
3:00 AM81 °FPassing clouds.3 mph84%29.65 "HgN/A
Weather by CustomWeather, © 2016

See weather overviewHow to use our weather pages